Regional Weather Roundup
Issued by NWS

Home | Current Version | Previous Version | Graphics & Text | Print | Product List | Glossary On
Versions: 1 2 3 4 5 6 7 8 9 10 11 12 13 14 15 16 17 18 19 20 21 22 23 24 25 26 27 28 29 30 31 32 33 34 35 36 37 38 39 40 41 42 43 44 45 46 47 48 49 50
830
ASUS43 KLOT 281704
RWRIL

ILLINOIS REGIONAL WEATHER ROUNDUP
NATIONAL WEATHER SERVICE CHICAGO/ROMEOVILLE IL
1200 PM CDT SUN AUG 28 2016

NOTE: "FAIR" INDICATES FEW OR NO CLOUDS BELOW 12,000 FEET WITH NO
SIGNIFICANT WEATHER AND/OR OBSTRUCTIONS TO VISIBILITY.

* THESE STATIONS ARE NOT UNDER NWS QUALITY CONTROL. THEY ALSO MAY NOT
  REPORT WEATHER SUCH AS PRECIPITATION OR FOG.

ILZ001-002-007-009-015-016-024-281800-
NORTHWEST ILLINOIS

CITY           SKY/WX    TMP DP  RH WIND       PRES   REMARKS
MOLINE         MOSUNNY   85  74  69 E5        30.17F HX  92
STERLING*      PTSUNNY   84  75  74 VRB3      30.20R HX  92
SAVANNA*       SUNNY     83  73  70 E5        30.19S HX  89
$$

ILZ003-004-008-010-011-017-018-281800-
NORTH CENTRAL ILLINOIS

CITY           SKY/WX    TMP DP  RH WIND       PRES   REMARKS
ROCKFORD       PTSUNNY   81  70  69 E6        30.21F HX  84
FREEPORT*      MOSUNNY   79  70  74 SE6       30.22F HX  82
ROCHELLE*      PTSUNNY   82  73  75 E5        30.21S HX  87
$$

ILZ005-006-012>014-019>023-281800-
NORTHEAST ILLINOIS

CITY           SKY/WX    TMP DP  RH WIND       PRES   REMARKS
CHICAGO-OHARE  MOSUNNY   81  69  67 NE8       30.21R HX  84
CHICAGO-MIDWAY PTSUNNY   81  70  69 E8        30.20S HX  84
AURORA         MOSUNNY   86  73  65 SE5       30.20S HX  93
LANSING*       MOSUNNY   81  76  85 NE6       30.21S HX  87
JOLIET*        MOSUNNY   86  74  66 CALM      30.19S HX  94
WAUKEGAN       PTSUNNY   74  69  85 NE8       30.22S
DUPAGE AIRPORT MOSUNNY   84  71  65 VRB5      30.20S HX  89
KANKAKEE*      MOSUNNY   82  74  77 SE5       30.20F HX  88
WHEELING       SUNNY     79  66  64 E8        30.22S HX  81
MORRIS*        PTSUNNY   85  75  71 CALM      30.18F HX  93
ROMEOVILLE*    MOSUNNY   83  76  79 SE5       30.19S HX  91
$$

LMZ740>746-281800-
SOUTHERN LAKE MICHIGAN

STATION/POSITION SKY/WX   TEMP    WIND        PRES    VSBY  WAVE
                          AIR SEA DIR/SP/G                  HT/PER
                          (F)     (DEG/KT/KT) (MB)    (MI)  (FT/S)
SOUTHERN BUOY              73 75   10/ 10/ 12 1022.7          1
WILMETTE HARBOR            71 71   20/  6/  6   N/A           1
HARRISON CRIB              74      50/  6/  7   N/A
BURNHAM HARBOR             76      30/  4/  7   N/A
CALUMET HARBOR             74      50/  6/  8 1022.6R
BURNS HARBOR               76      60/  9/ 10 1023.4R
MICHIGAN CITY              75      10/  9/ 10   N/A
MICHIGAN CITY 6N           76 76   50/  8/ 10   N/A           1/ 2
ST. JOSEPH                 75 75  360/  8/ 10 1022.7R         1
$$

ILZ025>027-034>036-040-047-049-050-058-095>099-281800-
WEST-CENTRAL ILLINOIS

CITY           SKY/WX    TMP DP  RH WIND       PRES   REMARKS
QUINCY         MOSUNNY   75  69  81 S7        30.18F
GALESBURG*     MOSUNNY   85  74  70 CALM      30.19S HX  92
MACOMB*        CLOUDY    77  75  93 W5        30.21S
JACKSONVILLE*  HVY RAIN  83  76  80 NW6       30.18S HX  90
PITTSFIELD*    CLOUDY    83  70  64 N3        30.19S HX  87
$$

ILZ028>032-037-038-041>044-048-051>054-059>061-281800-
CENTRAL ILLINOIS

CITY           SKY/WX    TMP DP  RH WIND       PRES   REMARKS
PONTIAC        MOSUNNY   85  77  75 CALM      30.20F HX  96
DECATUR        PTSUNNY   86  75  69 S3        30.20S HX  95
PEORIA         CLOUDY    82  75  79 SE6       30.18F HX  89
LACON*         PTSUNNY   83  74  73 NW3       30.18S HX  89
LINCOLN*       MOSUNNY   85  77  76 S3        30.19S HX  95
SPRINGFIELD    MOSUNNY   86  74  67 SE3       30.18F HX  94
TAYLORVILLE    SUNNY     86  75  70 CALM      30.19F HX  94
$$

ILZ033-039-045-046-055>057-062-063-281800-
EAST-CENTRAL ILLINOIS

CITY           SKY/WX    TMP DP  RH WIND       PRES   REMARKS
CHAMPAIGN      MOSUNNY   85  74  69 CALM      30.21S HX  92
RANTOUL*       MOSUNNY   85  76  74 CALM      30.21S HX  94
MATTOON        SUNNY     87  71  58 CALM      30.19R HX  93
PARIS*         SUNNY     86  75  71 CALM      30.20S HX  95
$$

ILZ079-100>102-281800-
SOUTHWEST ILLINOIS

CITY           SKY/WX    TMP DP  RH WIND       PRES   REMARKS
ALTON          MOSUNNY   86  72  62 VRB3      30.18S HX  92
BELLEVILLE     SUNNY     90  72  55 SW3       30.16S HX  97
CAHOKIA*       MOSUNNY   92  69  47 VRB6      30.16F HX  97
SPARTA*        MOSUNNY   87  76  70 SE3       30.18F HX  98
$$

ILZ064>066-069>071-074>076-080>082-084>086-088>090-092>094-281800-
SOUTH-CENTRAL ILLINOIS

CITY           SKY/WX    TMP DP  RH WIND       PRES   REMARKS
CARBONDALE     MOSUNNY   88  75  65 E6        30.17S HX  97
EFFINGHAM*     SUNNY     89  73  59 CALM      30.21R HX  97
MARION         MOSUNNY   90  75  62 SE5       30.18S HX 100
MT. VERNON     MOSUNNY   90  72  55 E6        30.17F HX  96
CENTRALIA*     SUNNY     89  76  63 CALM      30.17S HX 100
SALEM*         MOSUNNY   90  73  57 S6        30.18S HX  97
METROPOLIS*    SUNNY     89  76  64 CALM      30.16F HX 100
$$

ILZ067-068-072-073-078-083-087-091-281800-
SOUTHEAST ILLINOIS

CITY           SKY/WX    TMP DP  RH WIND       PRES   REMARKS
LAWRENCEVILLE  PTSUNNY   90  75  61 SE5       30.18F HX 100
FLORA*         SUNNY     91  72  52 SE5       30.18S HX  98
FAIRFIELD*     MOSUNNY   89  75  64 CALM      30.17S HX  99
HARRISBURG*    SUNNY     89  77  67 NE3       30.17S HX 101
ROBINSON*      PTSUNNY   86  77  73 CALM      30.19S HX  97
CARMI*         PTSUNNY   88  78  73 NW3       30.16F HX 102
$$

ABBREVIATIONS USED IN REMARKS
   TC - TEMPERATURE IN CELSIUS
  WCI - WIND CHILL INDEX
   HX - HEAT INDEX
  VSB - VISIBILITY
$$





USA.gov is the U.S. government's official web portal to all federal, state and local government web resources and services.